Карточка аэропорта UWGG

Внимание!
Информация на этой странице в стадии наполнения.
Если вы не увидели какой-то информации, или заметили неточность - пожалуйста сообщите нам!
Спасибо!
Команда RU-STAFF
Название аэропортаСтригино
Название аэропорта (англ.)Strigino
Превышение256 ft. (78 m.)
Координаты56°13.8', 43°47.202'
Высота перехода5000 ft
Эшелон переходаQNH>=1013hPa:FL060; QNH<1013hPa:FL070; QNH<977hPa:FL080
Коды ответчика2120-2147
Зона ОрВДМосква РПИ (UUWV)
Данные METARUWGG 100830Z 16002MPS 9999 OVC014 M03/M04 Q1018 R18L/450134 NOSIG
Проноз погоды (TAF)UWGG 100753Z 1009/1109 17003G09MPS 6000 -SN OVC016 TXM00/1106Z TNM03/1009Z TEMPO 1009/1106 1000 SHSN FZRA BKN007 BKN011CB
NOTAMshow/hide NOTAM
AWOS   TABLE

Информация о ВПП

ВПП Длина ВПП (м.) Покрытие Курс ВПП Частота ILS
18L3000Цементобетон179108.1
36R3000Цементобетон359110.5
18R2806Асфальтобетон179109.9
36L2806Асфальтобетон359109.5

Диспетчерские позиции

Позывной Наименование органа УВД Частота
UWGG_APPНижний-Подход124.700
UWGG_GNDНижний-Руление121.800
UWGG_R_APPНижний-Круг120.800
UWGG_TWRНижний-Вышка120.400



Спутниковое изображение